SCP
0 1 1 1 0 0 0 0 0 0 0 0 0 0 0 0 0 0 0 0 0 0 0 0 0 0 0 0 0 0 0 0 0 0 0 1 1 1
0 0 1 1 0 0 0 0 0 0 0 0 0 0 0 0 0 0 0 0 0 0 0 0 0 0 0 0 0 0 0 0 0 0 0 1 1 1
0 0 0 1 0 0 0 0 0 0 0 0 0 0 0 0 0 0 0 0 0 0 0 0 0 0 0 0 0 0 0 0 0 0 0 0 1 1
0 0 0 0 0 0 0 0 0 0 0 0 0 0 0 0 0 0 0 0 0 0 0 0 0 0 0 0 0 0 0 0 0 0 0 0 1 1
0 0 0 0 0 0 0 0 0 0 0 0 0 0 0 0 0 0 0 0 0 0 0 0 0 0 0 0 0 0 0 0 0 0 0 0 0 1
0 0 0 0 0 0 0 0 0 0 0 0 0 0 0 0 0 0 0 0 0 1 1 0 0 0 0 0 0 0 0 0 0 0 0 0 0 0
0 0 0 0 0 0 0 0 0 0 0 0 0 0 0 0 0 0 0 0 0 1 1 1 0 0 0 0 0 0 0 0 0 0 0 0 0 0
0 0 0 0 0 0 0 0 0 0 0 0 0 0 0 0 0 0 0 0 0 1 1 1 0 0 0 0 0 0 0 0 0 0 0 0 0 0
0 0 0 0 0 0 0 0 0 0 0 0 0 0 0 0 0 0 0 0 0 1 1 1 1 0 0 0 0 0 0 0 0 0 0 0 0 0
0 0 0 0 0 0 0 0 0 0 0 0 0 0 0 0 0 0 0 0 0 1 1 1 1 0 0 0 0 0 0 0 0 0 0 0 0 0
0 0 0 0 0 0 0 0 0 0 0 0 0 0 0 0 0 0 0 0 0 0 1 1 1 0 0 0 0 0 0 0 0 0 0 0 0 0
0 0 0 0 0 0 0 0 0 0 0 0 0 0 0 0 0 0 0 0 0 0 1 1 0 0 0 0 0 0 0 0 0 0 0 0 0 0
0 0 0 0 0 0 0 0 0 0 0 0 0 0 0 0 0 0 0 0 0 0 0 0 0 0 0 0 0 0 0 0 0 0 0 0 0 0
0 0 0 0 0 0 0 0 0 0 0 0 0 0 0 0 0 0 0 0 0 0 0 0 0 0 0 0 0 0 0 0 0 0 0 0 0 0
0 0 0 0 0 0 0 0 0 0 0 0 0 0 0 0 0 0 0 0 0 0 0 0 0 0 0 0 0 0 0 0 0 0 0 0 0 0
0 0 0 0 0 0 0 0 0 0 0 0 0 0 0 0 0 0 0 0 0 0 0 0 0 0 0 0 0 0 0 0 0 0 0 0 0 0
0 0 0 0 0 0 0 0 0 0 0 0 0 0 0 0 0 0 0 0 1 0 0 0 0 0 0 0 0 0 0 0 0 0 0 0 0 0
0 0 0 0 0 0 0 0 0 0 0 0 0 0 0 0 0 0 0 0 1 0 0 0 0 0 0 0 0 0 0 0 0 0 0 0 0 0
0 0 0 0 0 0 0 0 0 0 0 0 0 0 0 0 0 0 0 0 0 0 0 0 0 0 0 0 0 0 0 0 0 0 0 0 0 0
0 0 0 0 0 0 0 0 0 0 0 0 0 0 0 0 0 0 0 0 0 0 0 0 0 0 0 0 0 0 0 0 0 0 0 0 0 0
0 0 0 0 0 0 0 0 0 0 0 0 0 0 0 0 0 0 0 0 0 0 0 0 0 0 0 0 0 0 0 0 0 0 0 0 0 0
0 0 0 0 0 0 0 0 0 0 0 0 0 0 0 0 0 0 0 0 0 0 0 0 0 0 0 0 0 0 0 0 0 0 0 0 0 0
0 0 0 0 0 0 0 0 0 0 0 0 0 0 0 0 0 0 0 0 0 0 0 0 0 0 0 0 0 0 0 0 0 0 0 0 0 0
Wind_Speed
4 4 4 3 3 3 3 3 3 4 5 3 2 2 2 2 5 4 4 6 8 8 9 9 8 7 7 8 8 7 7 6 6 7 7 6 7 8
4 4 4 4 3 3 3 3 3 5 5 3 3 3 3 4 6 4 5 8 8 8 8 7 7 7 7 7 8 7 6 6 6 7 7 8 7 8
5 5 5 5 4 4 4 3 4 4 6 5 3 3 3 4 4 4 4 4 4 7 7 7 7 6 6 6 6 6 5 6 6 7 7 8 8 8
6 6 6 5 6 5 4 5 4 4 5 6 4 3 4 4 4 4 4 4 3 6 7 7 7 6 6 7 6 6 5 5 5 6 5 6 6 7
7 7 6 6 6 5 5 5 4 4 4 5 5 4 3 3 3 4 4 3 4 5 6 6 6 6 6 7 7 6 5 5 5 6 6 6 7 7
7 7 7 7 7 7 6 6 5 5 4 5 4 4 3 3 2 3 4 3 3 3 5 5 5 6 6 6 7 6 5 5 6 6 6 6 7 7
7 7 7 8 9 8 6 5 5 4 4 4 4 4 3 3 3 3 4 4 4 3 3 3 3 2 3 5 6 5 5 6 6 6 6 6 7 7
7 6 6 7 9 10 10 9 8 6 5 5 5 5 5 4 3 3 4 4 4 2 2 4 2 3 3 3 7 7 5 5 6 6 6 6 6 7
6 6 5 6 7 5 7 8 8 10 10 7 6 6 5 4 4 4 5 5 5 3 3 4 3 4 4 5 9 8 6 6 6 7 7 7 7 8
7 7 7 6 7 7 6 6 6 6 7 6 6 6 5 5 5 5 5 5 5 4 2 4 3 4 5 4 8 8 7 6 7 7 8 8 8 8
6 7 7 7 9 10 7 6 6 5 6 7 8 8 8 8 5 3 3 3 5 4 2 2 3 3 4 4 6 8 7 7 8 8 8 8 8 8
5 6 9 8 9 9 6 5 6 5 4 4 5 5 4 4 6 4 4 4 4 4 2 2 3 2 4 4 3 3 4 7 8 9 9 8 8 5
5 4 5 8 9 9 7 5 6 5 3 2 3 3 3 3 3 3 3 4 4 5 3 2 3 3 4 5 4 4 4 4 4 5 7 9 9 7
4 4 4 8 9 9 6 6 5 4 1 2 2 3 3 3 3 3 3 3 4 6 5 3 3 4 4 5 5 4 3 4 4 5 4 7 8 9
4 7 7 7 6 4 4 5 3 1 1 2 3 3 3 3 2 2 2 3 4 5 4 4 4 4 4 5 5 5 5 5 5 4 4 4 5 5
4 4 4 4 3 3 2 2 2 2 2 2 2 3 2 2 2 2 2 2 3 3 3 3 4 4 4 6 6 6 6 5 4 4 5 5 5 5
2 1 1 1 1 1 1 1 1 1 1 1 2 2 2 2 2 2 2 2 2 3 3 3 2 3 5 5 6 6 6 6 5 5 5 6 6 6
0 1 1 1 2 2 2 2 2 2 2 2 2 2 2 3 3 2 2 2 3 3 3 3 3 3 4 4 6 6 6 6 5 5 5 6 7 6
1 1 2 2 2 2 2 2 2 2 2 2 2 2 2 3 3 3 3 3 3 3 4 3 3 3 4 6 5 5 5 5 5 5 5 6 7 7
1 2 2 2 2 2 2 2 2 2 2 2 2 2 2 3 3 3 3 3 3 3 4 3 3 4 5 6 6 6 7 6 5 6 6 5 6 8
1 2 2 2 2 2 2 2 2 2 2 2 2 3 2 3 3 3 3 5 4 3 4 5 5 6 4 3 4 5 5 7 8 6 5 5 5 5
1 2 2 2 2 2 2 2 2 2 2 3 3 3 3 3 3 4 4 4 4 4 5 4 4 3 3 4 6 6 7 6 7 10 10 9 5 5
2 2 2 2 2 2 2 3 3 3 3 3 3 3 3 3 3 3 3 4 4 4 4 4 4 3 4 4 5 5 7 6 4 4 5 8 12 14
Wind_Direction
243 246 241 243 236 233 234 233 246 265 266 260 264 250 277 287 297 297 301 295 298 297 298 296 290 287 294 289 286 272 270 268 259 254 250 255 257 255
246 239 242 241 238 235 235 239 245 254 266 267 273 279 277 289 296 296 297 298 295 295 295 299 294 286 291 289 289 273 271 266 260 252 250 250 259 261
250 244 246 240 236 232 234 236 242 247 260 277 280 281 269 270 283 286 290 284 276 285 287 292 294 293 292 292 298 281 279 270 264 257 256 255 256 261
245 243 246 243 240 232 232 237 241 246 251 269 278 273 264 259 266 274 289 296 275 283 286 286 286 294 294 287 292 282 276 277 271 266 260 262 266 269
240 240 243 239 246 239 237 240 243 251 249 253 266 271 271 265 274 286 282 291 283 288 289 285 288 292 291 290 287 280 274 278 274 267 260 261 265 266
243 241 241 237 242 237 239 239 239 244 248 249 256 265 270 264 257 275 285 295 284 292 290 289 292 297 298 302 295 281 269 271 272 264 256 259 265 265
245 244 244 248 253 249 247 236 231 236 249 253 256 267 267 261 257 271 278 292 279 274 279 280 279 275 287 297 300 283 272 268 268 264 263 259 262 265
245 248 248 252 258 261 263 261 252 242 240 249 256 254 258 259 264 266 270 284 280 256 265 278 272 272 274 269 288 277 269 277 277 267 264 264 264 266
238 242 250 251 258 246 258 263 264 263 257 251 251 254 250 246 247 259 261 265 273 268 266 275 272 269 276 280 288 277 266 275 282 279 271 268 266 268
237 236 239 242 244 242 238 244 251 256 258 257 249 252 252 243 237 246 251 271 279 273 245 267 274 274 282 278 278 275 267 271 275 278 281 277 272 271
243 240 240 237 246 253 243 238 250 262 273 271 270 268 267 269 259 247 247 255 277 270 241 255 272 284 281 272 275 275 274 272 273 276 276 278 278 274
243 241 249 249 250 254 239 229 240 251 255 271 281 277 271 262 262 240 229 241 267 270 236 251 269 292 289 280 277 273 269 269 269 271 275 274 276 268
243 239 241 254 257 260 262 240 246 265 254 265 278 268 261 249 245 242 237 236 248 261 251 252 264 266 261 282 288 275 258 261 265 265 268 275 277 271
245 243 245 254 258 262 267 261 272 291 261 254 262 264 258 255 256 250 249 255 255 258 253 243 250 248 262 272 275 280 268 266 266 266 262 273 270 271
246 256 260 263 269 263 262 266 275 246 230 245 255 263 265 262 273 282 281 279 283 274 258 256 249 251 253 261 267 272 280 271 261 257 257 258 260 257
251 250 264 273 280 278 262 257 247 233 241 251 269 276 277 269 266 265 272 283 289 290 281 267 252 246 257 261 259 266 263 258 258 261 265 264 260 253
251 198 182 211 233 244 246 243 238 241 255 256 264 272 279 280 284 282 267 258 263 274 294 303 293 274 261 258 259 260 264 263 255 259 262 268 262 254
144 171 197 223 237 243 243 251 253 250 253 261 267 269 276 280 284 285 267 249 259 270 276 283 297 309 304 283 247 252 259 261 258 256 256 261 267 260
173 201 220 228 237 259 259 256 262 266 264 262 264 268 273 275 277 281 269 259 261 265 269 270 270 269 279 284 285 251 256 268 265 261 251 252 260 264
221 224 232 242 246 256 261 273 279 277 270 264 266 269 268 272 277 275 269 259 263 273 278 272 260 253 256 269 282 285 271 262 259 262 263 262 264 271
246 248 246 244 254 261 263 264 269 274 272 270 268 268 267 269 275 274 275 274 277 273 272 273 271 285 288 287 284 284 278 270 266 258 260 264 270 267
264 260 261 258 256 252 256 257 260 264 267 267 265 264 264 263 268 274 274 277 276 273 276 282 289 290 278 268 274 284 291 293 287 280 264 250 241 242
279 270 267 268 261 257 254 255 258 261 259 260 263 264 265 269 272 273 277 279 280 276 282 290 296 290 277 267 272 280 286 293 296 297 285 274 266 266